CW6575 Weather Reports


Display with metric or nautical units.
time (UTC)temp
F
wind
direction
speed
MPH
gust
MPH
rain 1hr
in
rain 24hr
in
rain mn
in
humidity
%
barometer
mb
20260905071522 66 164 0.0 0.0 0.01 0.72 0.01 95 1012.0
20260905070033 66 164 0.0 0.0 0.00 0.71 0.00 95 1012.4
20260905064535 66 164 0.0 1.0 0.00 0.71 0.00 95 1012.7
20260905063016 66 164 1.0 2.0 0.00 0.71 0.00 95 1012.9
20260905061512 65 164 1.0 3.0 0.00 0.71 0.00 95 1013.2
20260905060009 65 164 0.0 3.0 0.00 0.71 0.00 95 1013.4
20260905054508 65 164 0.0 0.0 0.00 0.72 0.00 95 1013.6
20260905053005 65 164 0.0 1.0 0.00 0.72 0.00 95 1013.9
20260905051510 65 169 1.0 2.0 0.00 0.72 0.00 95 1013.9
20260905050002 65 169 0.0 2.0 0.00 0.72 0.00 95 1014.0
20260905044600 65 169 1.0 3.0 0.00 0.72 0.00 95 1014.0
20260905043106 65 157 1.0 3.0 0.00 0.72 0.00 95 1014.2
20260905041601 65 157 0.0 1.0 0.00 0.72 0.00 95 1014.3
20260905040055 65 157 0.0 3.0 0.00 0.72 0.00 95 1014.3
20260905034554 66 175 0.0 0.0 0.00 1.08 0.72 95 1014.3
20260905033051 66 175 0.0 0.0 0.00 1.08 0.72 95 1014.1
20260905031552 66 175 0.0 2.0 0.00 1.08 0.72 95 1013.8
20260905030107 66 175 1.0 2.0 0.00 1.08 0.72 95 1013.7
20260905024551 66 161 1.0 3.0 0.00 1.08 0.72 95 1013.7
20260905023048 66 162 2.0 4.0 0.00 1.08 0.72 95 1013.7
20260905021549 66 162 0.0 2.0 0.00 1.08 0.72 95 1013.7
20260905020049 66 164 2.0 4.0 0.00 1.08 0.72 95 1013.2
20260905014554 66 155 1.0 3.0 0.00 1.08 0.72 95 1013.3
20260905013049 66 150 0.0 1.0 0.00 1.08 0.72 94 1013.3
20260905011548 66 150 0.0 2.0 0.00 1.08 0.72 94 1013.2
20260905010047 67 150 0.0 3.0 0.00 1.08 0.72 94 1012.9
20260905004545 67 167 0.0 3.0 0.00 1.08 0.72 94 1012.8
20260905003045 67 173 1.0 6.0 0.00 1.08 0.72 94 1012.6
20260905001546 68 150 1.0 5.0 0.00 1.08 0.72 94 1012.7
20260905000045 68 148 0.0 2.0 0.00 1.08 0.72 93 1012.6
20260904234547 68 148 1.0 3.0 0.00 1.08 0.72 93 1012.4
20260904233045 69 153 1.0 4.0 0.00 1.08 0.72 93 1012.5
20260904231542 69 155 0.0 3.0 0.00 1.08 0.72 93 1012.7
20260904230042 70 145 0.0 5.0 0.00 1.08 0.72 93 1013.1
20260904224542 69 167 0.0 3.0 0.00 1.08 0.72 94 1012.9
20260904223049 68 157 2.0 4.0 0.00 1.08 0.72 94 1013.0
20260904221549 68 148 0.0 2.0 0.00 1.08 0.72 94 1013.3
20260904220055 68 148 0.0 7.0 0.00 1.08 0.72 94 1013.3
20260904214541 68 159 2.0 5.0 0.00 1.08 0.72 94 1013.6
20260904213039 67 155 0.0 2.0 0.00 1.08 0.72 94 1013.9
20260904211545 66 155 0.0 2.0 0.00 1.08 0.72 94 1013.5
20260904210043 66 155 0.0 4.0 0.02 1.08 0.72 93 1013.4
20260904204535 66 157 2.0 6.0 0.44 1.08 0.72 93 1014.0
20260904203035 66 150 2.0 6.0 0.69 1.08 0.72 92 1014.7
20260904201533 68 144 2.0 6.0 0.69 1.08 0.72 92 1015.0
20260904200032 69 147 0.0 2.0 0.67 1.06 0.70 91 1015.8
20260904194617 72 15 5.0 17.0 0.23 0.62 0.26 88 1016.5
20260904193037 77 355 5.0 14.0 0.01 0.39 0.03 75 1013.9
20260904191528 81 355 0.0 2.0 0.02 0.39 0.03 79 1012.6
20260904190027 82 355 0.0 0.0 0.02 0.39 0.03 80 1012.5
20260904184526 82 355 0.0 3.0 0.02 0.39 0.03 82 1012.2
20260904183024 84 302 0.0 5.0 0.01 0.38 0.02 72 1012.3
20260904181521 87 221 2.0 5.0 0.00 0.37 0.01 63 1012.8
20260904180020 87 340 3.0 12.0 0.00 0.37 0.01 64 1013.0
20260904174518 87 355 2.0 10.0 0.00 0.37 0.01 61 1013.1
20260904173022 87 331 1.0 5.0 0.00 0.37 0.01 63 1013.3
20260904171519 85 315 2.0 5.0 0.00 0.37 0.01 70 1013.4
20260904170012 86 327 1.0 6.0 0.00 0.37 0.01 69 1013.6
20260904164510 86 349 3.0 5.0 0.00 0.37 0.01 67 1013.8
20260904163010 85 338 2.0 8.0 0.00 0.37 0.01 71 1014.0
20260904161504 84 350 1.0 4.0 0.00 0.37 0.01 71 1014.1
20260904160005 83 305 1.0 6.0 0.00 0.37 0.01 71 1014.2
20260904154501 83 331 0.0 3.0 0.00 0.37 0.01 75 1014.2
20260904153102 83 42 1.0 4.0 0.00 0.37 0.01 74 1014.3
20260904151609 82 141 0.0 3.0 0.00 0.37 0.01 75 1014.2
20260904150054 81 105 0.0 3.0 0.00 0.37 0.01 79 1014.3
20260904144549 79 133 1.0 3.0 0.00 0.37 0.01 82 1014.4
20260904143045 77 144 2.0 5.0 0.00 0.37 0.01 89 1014.4
20260904141607 74 164 0.0 3.0 0.00 0.37 0.01 95 1014.5
20260904140045 73 148 1.0 3.0 0.00 0.37 0.01 96 1014.5
20260904134533 71 151 1.0 4.0 0.00 0.37 0.01 96 1014.7
20260904133030 71 144 1.0 4.0 0.00 0.37 0.01 96 1014.5
20260904131529 70 142 2.0 5.0 0.00 0.37 0.01 96 1014.8
20260904130028 69 157 1.0 3.0 0.00 0.37 0.01 96 1014.9
20260904124527 69 167 2.0 4.0 0.00 0.37 0.01 96 1014.9
20260904123026 68 149 0.0 4.0 0.00 0.37 0.01 96 1015.1
20260904121534 68 158 0.0 2.0 0.00 0.37 0.01 96 1015.0
20260904120027 68 158 2.0 6.0 0.00 0.37 0.01 96 1014.9
20260904114522 67 173 1.0 3.0 0.00 0.37 0.01 95 1014.9
20260904113032 67 254 0.0 2.0 0.00 0.37 0.01 96 1014.9
20260904111525 67 325 0.0 3.0 0.00 0.37 0.01 96 1015.0
20260904110019 67 333 1.0 3.0 0.00 0.37 0.01 95 1014.8
20260904104517 67 329 0.0 0.0 0.00 0.37 0.01 95 1014.6
20260904103018 67 329 0.0 2.0 0.00 0.37 0.01 95 1014.5
20260904101517 67 277 1.0 3.0 0.00 0.37 0.01 95 1014.4
20260904100017 67 164 0.0 1.0 0.00 0.37 0.01 95 1014.3
20260904094615 67 164 1.0 5.0 0.00 0.37 0.01 95 1014.1
20260904093015 67 214 0.0 2.0 0.00 0.37 0.01 95 1014.2
20260904091515 67 214 0.0 2.0 0.00 0.37 0.01 95 1014.1
20260904090013 67 153 0.0 3.0 0.00 0.37 0.01 95 1014.1
20260904084512 67 179 0.0 2.0 0.00 0.37 0.01 95 1013.9
20260904083015 67 179 1.0 5.0 0.00 0.37 0.01 95 1013.9
20260904081515 67 168 1.0 4.0 0.00 0.37 0.01 95 1014.0
20260904080011 67 153 2.0 3.0 0.00 0.37 0.01 95 1013.8
20260904074516 67 155 1.0 6.0 0.00 0.37 0.01 95 1013.8
20260904073009 67 146 2.0 4.0 0.00 0.37 0.01 95 1013.7